Location: ????????
(55.7667°N, 37.4833°E)
Time: 13:33:38
(UTC+00:00)

COSMOS 2455 - Pass Details

Date: 19 May 2025
Orbit: 899 x 909 km, 67.1° (Epoch: 20 June)

Event Time Altitude Azimuth Distance (km) Brightness Sun altitude
Rises 21:46:45 0° 308° (NW) 3,542 6.4 -14.1°
Reaches altitude 10° 21:49:29 10° 317° (NW) 2,601 5.8 -14.1°
Maximum altitude 21:55:03 37° 24° (NNE) 1,385 4.5 -14.0°
Drops below altitude 10° 22:00:36 10° 91° (E) 2,598 5.3 -13.9°
Sets 22:03:19 0° 100° (E) 3,538 5.9 -13.9°
